KOREASAT 5 (MUGUNGWHA 5)

Last updated on Thu Nov 21 2024 00:02:40 GMT+0000 (Coordinated Universal Time)

1 29349U 06034A 24325.56105897 -.00000357 00000+0 00000+0 0 9991 2 29349 0.2944 92.7176 0002143 183.5767 98.8153 1.00269963 35566
UTC large
Height (km)
Speed (km/s)
/
Latitude / Longitude
Inclination (degrees)
Orbital Period (minutes)
Azimuth
Elevation
Range (km)
Doppler Factor

Next 0 passes for location: London (51.5072 / 0.1276)

Sorry there are no passes over London.